Data for 02/24/2018

Time Sea-Level Adjusted Pressure Absolute Pressure Temperature Relative Humidity Dew Point   
(mb) (inHg) (mb) (inHg) (C) (F) (%) (C) (F)
00:05 1013 29.91 843 24.89 -7.3 18.8 51 -15.7 3.7
00:10 1013 29.91 843 24.89 -7.2 19 52 -15.6 4
00:15 1013 29.91 843 24.89 -7.2 19 54 -15 5.1
00:20 1013 29.91 843 24.89 -7.1 19.3 58 -14 6.8
00:25 1013 29.91 843 24.89 -6.6 20.1 57 -13.8 7.1
00:30 1013 29.91 843 24.89 -6.4 20.4 58 -13.5 7.7
00:35 1013 29.91 843 24.89 -6.4 20.4 57 -13.5 7.7
00:40 1013 29.91 843 24.89 -6.5 20.4 57 -13.7 7.4
00:45 1013 29.91 843 24.89 -6.4 20.5 56 -13.8 7.2
00:50 1013 29.91 842 24.86 -6.4 20.4 55 -14 6.8
00:55 1013 29.91 843 24.89 -6.3 20.6 56 -13.8 7.2
01:00 1013 29.91 843 24.89 -6.4 20.5 54 -14.2 6.4
01:05 1013 29.91 842 24.86 -6.3 20.7 53 -14.5 5.9
01:10 1013 29.91 842 24.86 -6.3 20.7 52 -14.6 5.8
01:15 1013 29.91 842 24.86 -6.3 20.7 53 -14.3 6.3
01:20 1013 29.91 842 24.86 -6.3 20.6 53 -14.4 6.1
01:25 1013 29.91 842 24.86 -6.3 20.6 52 -14.5 5.8
01:30 1013 29.91 842 24.86 -6.3 20.6 51 -14.9 5.1
01:35 1013 29.91 842 24.86 -6.3 20.7 50 -15.1 4.7
01:40 1013 29.91 842 24.86 -6.2 20.9 50 -14.9 5.1
01:45 1012 29.88 842 24.86 -6.2 20.8 50 -15 5.1
01:50 1012 29.88 842 24.86 -6.3 20.7 50 -15 4.9
01:55 1012 29.88 842 24.86 -6.3 20.7 51 -14.9 5.2
02:00 1012 29.88 842 24.86 -6.3 20.7 50 -15.2 4.7
02:05 1012 29.88 842 24.86 -6.3 20.7 50 -15.2 4.7
02:10 1012 29.88 841 24.83 -6.3 20.7 50 -15 5
02:15 1012 29.88 841 24.83 -6.3 20.7 50 -15.1 4.8
02:20 1012 29.88 841 24.83 -6.2 20.8 50 -15 5
02:25 1012 29.88 841 24.83 -6.2 20.8 50 -14.9 5.1
02:30 1012 29.88 841 24.83 -6.2 20.8 50 -14.9 5.2
02:35 1012 29.88 841 24.83 -6.3 20.7 51 -14.8 5.3
02:40 1012 29.88 841 24.83 -6.4 20.6 52 -14.7 5.6
02:45 1012 29.88 841 24.83 -6.4 20.5 52 -14.7 5.6
02:50 1012 29.88 841 24.83 -6.4 20.5 52 -14.7 5.5
02:55 1012 29.88 841 24.83 -6.4 20.5 52 -14.7 5.5
03:00 1012 29.88 841 24.83 -6.4 20.5 52 -14.8 5.4
03:05 1012 29.88 841 24.83 -6.4 20.5 52 -14.6 5.7
03:10 1012 29.88 841 24.83 -6.4 20.5 52 -14.8 5.4
03:15 1012 29.88 841 24.83 -6.3 20.6 52 -14.7 5.6
03:20 1012 29.88 841 24.83 -6.3 20.6 53 -14.4 6.1
03:25 1012 29.88 841 24.83 -6.3 20.6 54 -14.3 6.2
03:30 1012 29.88 841 24.83 -6.3 20.6 51 -15 5.1
03:35 1012 29.88 841 24.83 -6.2 20.8 51 -14.9 5.2
03:40 1012 29.88 841 24.83 -6.2 20.9 51 -14.7 5.5
03:45 1012 29.88 841 24.83 -6.2 20.8 51 -14.8 5.3
03:50 1012 29.88 841 24.83 -6.2 20.8 50 -15.1 4.8
03:55 1012 29.88 841 24.83 -6.2 20.9 50 -15.1 4.9
04:00 1012 29.88 841 24.83 -6.1 21.1 48 -15.4 4.3
04:05 1012 29.88 841 24.83 -6 21.1 49 -15.2 4.7
04:10 1012 29.88 841 24.83 -6.1 21.1 47 -15.6 4
04:15 1012 29.88 841 24.83 -6 21.2 48 -15.4 4.4
04:20 1012 29.88 841 24.83 -6.1 21.1 49 -15.3 4.5
04:25 1012 29.88 841 24.83 -6.2 20.9 49 -15.2 4.7
04:30 1012 29.88 841 24.83 -6.1 20.9 48 -15.5 4
04:35 1012 29.88 841 24.83 -6.1 21 46 -15.9 3.4
04:40 1012 29.88 841 24.83 -6.1 21.1 47 -15.6 3.9
04:45 1012 29.88 841 24.83 -6.1 21 48 -15.4 4.3
04:50 1012 29.88 841 24.83 -6.2 20.8 49 -15.3 4.4
04:55 1012 29.88 841 24.83 -6.2 20.9 48 -15.4 4.3
05:00 1012 29.88 841 24.83 -6.2 20.9 49 -15.2 4.6
05:05 1012 29.88 841 24.83 -6.1 20.9 48 -15.6 4
05:10 1012 29.88 841 24.83 -6.2 20.9 48 -15.4 4.2
05:15 1012 29.88 841 24.83 -6.2 20.9 47 -15.6 3.8
05:20 1012 29.88 841 24.83 -6.2 20.9 47 -15.7 3.7
05:25 1012 29.88 841 24.83 -6.2 20.8 47 -15.7 3.8
05:30 1012 29.88 841 24.83 -6.2 20.8 48 -15.6 3.9
05:35 1012 29.88 841 24.83 -6.1 20.9 48 -15.4 4.3
05:40 1012 29.88 841 24.83 -6.2 20.8 48 -15.5 4.2
05:45 1012 29.88 841 24.83 -6.2 20.9 49 -15.3 4.5
05:50 1012 29.88 841 24.83 -6.2 20.8 49 -15.2 4.7
05:55 1012 29.88 841 24.83 -6.2 20.8 49 -15.2 4.7
06:00 1012 29.88 841 24.83 -6.3 20.6 50 -15.1 4.9
06:05 1012 29.88 841 24.83 -6.4 20.5 51 -15 5.1
06:10 1012 29.88 841 24.83 -6.4 20.5 51 -15 5.1
06:15 1012 29.88 841 24.83 -6.3 20.7 51 -14.7 5.5
06:20 1012 29.88 841 24.83 -6.3 20.6 52 -14.7 5.6
06:25 1012 29.88 841 24.83 -6.4 20.5 53 -14.6 5.7
06:30 1012 29.88 841 24.83 -6.5 20.3 52 -14.7 5.5
06:35 1012 29.88 841 24.83 -6.5 20.3 53 -14.5 5.9
06:40 1012 29.88 841 24.83 -6.5 20.4 50 -15.1 4.8
06:45 1012 29.88 841 24.83 -6.3 20.7 50 -15.1 4.8
06:50 1012 29.88 841 24.83 -6.2 20.9 50 -15 5
06:55 1012 29.88 841 24.83 -6.1 21.1 49 -15 4.9
07:00 1012 29.88 841 24.83 -5.9 21.3 50 -14.9 5.2
07:05 1011 29.85 841 24.83 -5.7 21.8 48 -15 4.9
07:10 1011 29.85 841 24.83 -5.2 22.7 46 -15.2 4.7
07:15 1011 29.85 841 24.83 -4.7 23.6 45 -15 5.1
07:20 1011 29.85 840 24.81 -4.7 23.6 43 -15.4 4.4
07:25 1011 29.85 840 24.81 -4.4 24 43 -15.3 4.4
07:30 1011 29.85 840 24.81 -4.6 23.7 43 -15.4 4.3
07:35 1011 29.85 840 24.81 -4.8 23.3 44 -15.3 4.4
07:40 1011 29.85 840 24.81 -4.9 23.2 45 -15.1 4.8
07:45 1011 29.85 840 24.81 -5 23 46 -15 5
07:50 1011 29.85 840 24.81 -5.1 22.9 45 -15.2 4.7
07:55 1011 29.85 840 24.81 -5.1 22.7 46 -15.1 4.9
08:00 1011 29.85 841 24.83 -5.1 22.8 47 -14.8 5.3
08:05 1011 29.85 841 24.83 -5.1 22.9 47 -14.7 5.6
08:10 1011 29.85 841 24.83 -5 23 47 -14.7 5.6
08:15 1011 29.85 841 24.83 -5 23 46 -14.8 5.3
08:20 1011 29.85 841 24.83 -5.1 22.9 47 -14.8 5.3
08:25 1011 29.85 841 24.83 -4.8 23.3 45 -15.1 4.8
08:30 1011 29.85 840 24.81 -4.6 23.7 42 -15.7 3.7
08:35 1011 29.85 840 24.81 -4.3 24.2 41 -15.9 3.5
08:40 1011 29.85 840 24.81 -4.3 24.3 43 -15.1 4.8
08:45 1011 29.85 840 24.81 -4.3 24.2 43 -15.2 4.6
08:50 1011 29.85 840 24.81 -4.2 24.5 43 -14.9 5.2
08:55 1011 29.85 840 24.81 -4.1 24.5 45 -14.5 5.9
09:00 1011 29.85 840 24.81 -4.1 24.6 45 -14.5 5.9
09:05 1011 29.85 840 24.81 -4 24.9 45 -14.1 6.6
09:10 1011 29.85 840 24.81 -3.8 25.1 44 -14.5 5.9
09:15 1011 29.85 840 24.81 -3.7 25.3 41 -15.2 4.7
09:20 1010 29.83 840 24.81 -3.6 25.6 41 -15 5
09:25 1010 29.83 840 24.81 -3.5 25.6 40 -15.2 4.6
09:30 1010 29.83 840 24.81 -3.5 25.7 40 -15.3 4.4
09:35 1010 29.83 840 24.81 -3.4 25.9 40 -15.1 4.8
09:40 1010 29.83 840 24.81 -3.4 25.9 39 -15.3 4.4
09:45 1010 29.83 839 24.78 -3.4 26 40 -15.2 4.7
09:50 1010 29.83 839 24.78 -3.3 26.1 40 -15.1 4.7
09:55 1010 29.83 839 24.78 -3.2 26.2 40 -15.1 4.8
10:00 1010 29.83 839 24.78 -3.1 26.5 39 -15.3 4.5
10:05 1010 29.83 839 24.78 -2.8 27 39 -15 5.1
10:10 1010 29.83 839 24.78 -2.6 27.4 37 -15.4 4.3
10:15 1010 29.83 839 24.78 -2.5 27.6 40 -14.4 6
10:20 1010 29.83 839 24.78 -1.8 28.7 38 -14.2 6.4
10:25 1010 29.83 839 24.78 -1.7 29 39 -13.8 7.1
10:30 1010 29.83 839 24.78 -1.5 29.3 38 -14.2 6.4
10:35 1010 29.83 839 24.78 -1.3 29.7 37 -14.4 6.1
10:40 1010 29.83 839 24.78 -1.4 29.5 37 -14.2 6.4
10:45 1010 29.83 839 24.78 -1.4 29.5 35 -14.9 5.2
10:50 1010 29.83 839 24.78 -1.5 29.3 37 -14.4 6.1
10:55 1010 29.83 839 24.78 -1.3 29.6 37 -14.1 6.6
11:00 1010 29.83 839 24.78 -1.2 29.9 36 -14.5 5.9
11:05 1010 29.83 839 24.78 -1.1 30 35 -14.7 5.5
11:10 1010 29.83 839 24.78 -1 30.1 34 -14.9 5.1
11:15 1010 29.83 839 24.78 -1.1 29.9 36 -14.6 5.8
11:20 1010 29.83 839 24.78 -1.3 29.6 35 -14.8 5.4
11:25 1010 29.83 839 24.78 -1.2 29.9 35 -14.6 5.7
11:30 1010 29.83 839 24.78 -1 30.1 36 -14.2 6.5
11:35 1010 29.83 839 24.78 -0.8 30.6 37 -13.8 7.1
11:40 1009 29.8 839 24.78 -0.5 31.1 36 -13.9 6.9
11:45 1009 29.8 839 24.78 -0.7 30.8 36 -14.2 6.5
11:50 1009 29.8 839 24.78 -1 30.2 37 -13.9 6.9
11:55 1009 29.8 838 24.75 -1.1 30 37 -14.1 6.5
12:00 1009 29.8 838 24.75 -0.8 30.5 36 -14.3 6.3
12:05 1009 29.8 838 24.75 -1.1 30 35 -14.7 5.5
12:10 1009 29.8 838 24.75 -1.5 29.3 36 -14.9 5.1
12:15 1009 29.8 838 24.75 -1.4 29.4 36 -14.8 5.4
12:20 1009 29.8 838 24.75 -1.2 29.8 35 -14.7 5.5
12:25 1009 29.8 838 24.75 -0.8 30.5 33 -15.1 4.9
12:30 1009 29.8 838 24.75 -0.9 30.4 35 -14.6 5.8
12:35 1009 29.8 838 24.75 -0.9 30.4 37 -13.9 7
12:40 1009 29.8 838 24.75 -0.7 30.8 36 -14.2 6.5
12:45 1009 29.8 838 24.75 -0.5 31.1 35 -14.3 6.2
12:50 1009 29.8 838 24.75 -0.6 30.8 33 -14.9 5.1
12:55 1009 29.8 838 24.75 -0.6 30.9 33 -14.9 5.2
13:00 1008 29.77 838 24.75 -0.5 31.2 33 -14.8 5.4
13:05 1008 29.77 838 24.75 -0.3 31.4 33 -14.9 5.2
13:10 1008 29.77 838 24.75 -0.4 31.3 32 -15.2 4.7
13:15 1008 29.77 837 24.72 -0.3 31.4 32 -15 5.1
13:20 1008 29.77 837 24.72 -0.1 31.8 31 -15.3 4.5
13:25 1008 29.77 837 24.72 0 32.1 32 -15 5.1
13:30 1008 29.77 837 24.72 0.2 32.3 33 -14.2 6.5
13:35 1008 29.77 837 24.72 0.4 32.7 34 -13.9 7
13:40 1008 29.77 837 24.72 0.1 32.2 33 -14.6 5.8
13:45 1008 29.77 837 24.72 -0.4 31.2 35 -14.3 6.3
13:50 1008 29.77 837 24.72 -0.1 31.9 33 -14.7 5.6
13:55 1008 29.77 837 24.72 0.5 32.9 31 -14.9 5.2
14:00 1008 29.77 837 24.72 0.7 33.3 30 -14.9 5.2
14:05 1008 29.77 837 24.72 0.6 33.1 30 -15 5.1
14:10 1008 29.77 837 24.72 0.7 33.3 31 -14.4 6.1
14:15 1008 29.77 837 24.72 1 33.9 30 -14.5 5.8
14:20 1008 29.77 837 24.72 0.8 33.5 31 -14.5 5.9
14:25 1008 29.77 837 24.72 0.2 32.4 32 -14.7 5.6
14:30 1008 29.77 837 24.72 0.1 32.3 32 -14.7 5.5
14:35 1008 29.77 837 24.72 -0.3 31.5 34 -14.2 6.5
14:40 1008 29.77 837 24.72 -0.5 31 35 -14.2 6.4
14:45 1008 29.77 837 24.72 -0.5 31.1 34 -14.4 6
14:50 1008 29.77 837 24.72 -0.4 31.2 34 -14.5 5.9
14:55 1008 29.77 837 24.72 -0.5 31.2 36 -13.9 7
15:00 1008 29.77 837 24.72 -0.5 31.1 36 -13.9 6.9
15:05 1008 29.77 837 24.72 -0.4 31.2 37 -13.5 7.7
15:10 1008 29.77 837 24.72 -0.4 31.2 36 -13.8 7.2
15:15 1008 29.77 837 24.72 -0.5 31 35 -14.3 6.3
15:20 1008 29.77 837 24.72 -0.7 30.7 37 -13.7 7.4
15:25 1008 29.77 837 24.72 -0.8 30.6 36 -14.1 6.6
15:30 1008 29.77 837 24.72 -0.9 30.3 36 -14.2 6.4
15:35 1008 29.77 837 24.72 -1 30.2 36 -14.4 6.1
15:40 1008 29.77 837 24.72 -1.1 30 37 -14.1 6.6
15:45 1008 29.77 837 24.72 -1.2 29.8 39 -13.4 7.8
15:50 1008 29.77 837 24.72 -1.4 29.5 40 -13.4 7.9
15:55 1008 29.77 837 24.72 -1.6 29.2 40 -13.4 7.8
16:00 1008 29.77 837 24.72 -1.7 28.9 42 -13.2 8.3
16:05 1008 29.77 837 24.72 -1.9 28.7 42 -13.2 8.2
16:10 1008 29.77 837 24.72 -1.9 28.5 40 -13.8 7.1
16:15 1008 29.77 837 24.72 -2 28.5 41 -13.4 7.8
16:20 1008 29.77 837 24.72 -2.1 28.2 40 -13.9 7
16:25 1008 29.77 837 24.72 -2.2 28.1 42 -13.5 7.6
16:30 1008 29.77 837 24.72 -2.2 28.1 42 -13.5 7.8
16:35 1008 29.77 837 24.72 -2.2 28.1 41 -13.7 7.3
16:40 1008 29.77 837 24.72 -2.2 28 41 -13.8 7.1
16:45 1008 29.77 837 24.72 -2.3 27.9 41 -13.7 7.3
16:50 1008 29.77 838 24.75 -2.4 27.7 42 -13.7 7.4
16:55 1008 29.77 838 24.75 -2.6 27.3 42 -13.8 7.2
17:00 1008 29.77 838 24.75 -2.6 27.3 42 -13.9 7.1
17:05 1008 29.77 838 24.75 -2.7 27.2 45 -13.1 8.3
17:10 1009 29.8 838 24.75 -2.8 27 44 -13.5 7.7
17:15 1009 29.8 838 24.75 -2.8 27 44 -13.4 7.9
17:20 1009 29.8 838 24.75 -2.9 26.8 45 -13.3 8.1
17:25 1009 29.8 838 24.75 -2.9 26.8 45 -13.3 8
17:30 1009 29.8 838 24.75 -3 26.6 46 -13 8.5
17:35 1009 29.8 838 24.75 -3.1 26.4 47 -12.9 8.7
17:40 1009 29.8 838 24.75 -3.2 26.3 46 -13.3 8.1
17:45 1009 29.8 838 24.75 -3.2 26.2 46 -13.3 8
17:50 1009 29.8 838 24.75 -3.3 26 46 -13.3 8.1
17:55 1009 29.8 838 24.75 -3.4 25.9 46 -13.3 8
18:00 1009 29.8 838 24.75 -3.4 25.9 47 -13 8.6
18:05 1009 29.8 838 24.75 -3.4 25.9 47 -13.2 8.3
18:10 1009 29.8 838 24.75 -3.4 25.8 48 -13 8.5
18:15 1009 29.8 838 24.75 -3.5 25.8 47 -13.3 8
18:20 1009 29.8 838 24.75 -3.4 25.8 48 -12.9 8.8
18:25 1009 29.8 838 24.75 -3.6 25.6 48 -13.1 8.3
18:30 1009 29.8 838 24.75 -3.5 25.6 47 -13.2 8.2
18:35 1009 29.8 838 24.75 -3.6 25.6 49 -12.9 8.8
18:40 1009 29.8 838 24.75 -3.7 25.4 50 -12.7 9.2
18:45 1009 29.8 838 24.75 -3.8 25.2 50 -12.9 8.9
18:50 1009 29.8 838 24.75 -3.7 25.3 49 -12.9 8.9
18:55 1009 29.8 838 24.75 -3.7 25.4 49 -12.8 9
19:00 1009 29.8 838 24.75 -3.7 25.4 49 -12.8 8.9
19:05 1009 29.8 838 24.75 -3.7 25.3 50 -12.7 9.2
19:10 1009 29.8 838 24.75 -3.8 25.1 51 -12.6 9.3
19:15 1009 29.8 838 24.75 -3.9 25 52 -12.4 9.7
19:20 1009 29.8 839 24.78 -3.9 24.9 52 -12.3 9.9
19:25 1010 29.83 839 24.78 -3.9 25 53 -12.2 10
19:30 1010 29.83 839 24.78 -4 24.9 58 -11 12.1
19:35 1010 29.83 839 24.78 -4.5 23.9 62 -10.8 12.6
19:40 1010 29.83 839 24.78 -4.7 23.6 64 -10.4 13.2
19:45 1010 29.83 839 24.78 -4.7 23.5 64 -10.5 13.2
19:50 1010 29.83 839 24.78 -4.7 23.6 64 -10.5 13.1
19:55 1010 29.83 839 24.78 -4.7 23.6 68 -9.8 14.4
20:00 1010 29.83 839 24.78 -4.9 23.2 70 -9.5 14.9
20:05 1010 29.83 839 24.78 -5 23 71 -9.5 14.9
20:10 1010 29.83 840 24.81 -5 23 71 -9.4 15
20:15 1010 29.83 840 24.81 -4.9 23.1 71 -9.4 15.1
20:20 1010 29.83 840 24.81 -4.9 23.2 71 -9.3 15.2
20:25 1010 29.83 840 24.81 -5 23.1 72 -9.2 15.4
20:30 1010 29.83 840 24.81 -5 23 71 -9.4 15.1
20:35 1011 29.85 840 24.81 -5 23 71 -9.5 15
20:40 1011 29.85 840 24.81 -5 22.9 72 -9.4 15.1
20:45 1011 29.85 840 24.81 -5.1 22.9 72 -9.4 15
20:50 1011 29.85 840 24.81 -5.1 22.8 72 -9.4 15
20:55 1011 29.85 840 24.81 -5.2 22.7 72 -9.4 15.1
21:00 1011 29.85 840 24.81 -5.2 22.6 73 -9.4 15.1
21:05 1011 29.85 840 24.81 -5.3 22.5 73 -9.3 15.2
21:10 1011 29.85 840 24.81 -5.3 22.5 73 -9.3 15.2
21:15 1011 29.85 840 24.81 -5.3 22.5 74 -9.3 15.3
21:20 1011 29.85 840 24.81 -5.3 22.5 74 -9.2 15.4
21:25 1011 29.85 840 24.81 -5.3 22.5 74 -9.2 15.5
21:30 1011 29.85 840 24.81 -5.3 22.4 75 -9.1 15.6
21:35 1011 29.85 840 24.81 -5.4 22.3 75 -9.1 15.5
21:40 1011 29.85 840 24.81 -5.4 22.3 75 -9.1 15.6
21:45 1011 29.85 840 24.81 -5.5 22.1 75 -9.2 15.4
21:50 1011 29.85 840 24.81 -5.4 22.2 75 -9.2 15.5
21:55 1011 29.85 840 24.81 -5.4 22.2 73 -9.6 14.8
22:00 1011 29.85 840 24.81 -5.4 22.3 74 -9.2 15.4
22:05 1011 29.85 840 24.81 -5.4 22.3 75 -9.2 15.4
22:10 1011 29.85 840 24.81 -5.4 22.4 73 -9.4 15
22:15 1011 29.85 840 24.81 -5.3 22.4 73 -9.5 14.9
22:20 1011 29.85 840 24.81 -5.3 22.4 73 -9.4 15
22:25 1011 29.85 840 24.81 -5.4 22.4 73 -9.5 15
22:30 1011 29.85 840 24.81 -5.4 22.3 72 -9.7 14.5
22:35 1011 29.85 840 24.81 -5.5 22.2 72 -9.8 14.4
22:40 1011 29.85 840 24.81 -5.5 22.1 71 -10 14
22:45 1011 29.85 840 24.81 -5.5 22 71 -10 13.9
22:50 1011 29.85 840 24.81 -5.6 22 70 -10.2 13.7
22:55 1011 29.85 840 24.81 -5.5 22 71 -10.1 13.9
23:00 1011 29.85 840 24.81 -5.6 21.9 72 -10 14.1
23:05 1011 29.85 840 24.81 -5.7 21.7 72 -10 14
23:10 1011 29.85 840 24.81 -5.9 21.5 72 -10.1 13.9
23:15 1011 29.85 840 24.81 -5.9 21.3 71 -10.3 13.5
23:20 1011 29.85 840 24.81 -5.9 21.4 70 -10.5 13
23:25 1011 29.85 840 24.81 -5.9 21.4 67 -11.1 12.1
23:30 1011 29.85 840 24.81 -5.9 21.3 66 -11.4 11.6
23:35 1011 29.85 840 24.81 -6 21.3 65 -11.6 11.2
23:40 1011 29.85 840 24.81 -6 21.2 63 -11.9 10.6
23:45 1011 29.85 840 24.81 -6 21.2 62 -12.2 10
23:50 1011 29.85 840 24.81 -6 21.2 58 -13.1 8.5
23:55 1011 29.85 840 24.81 -5.8 21.5 56 -13.4 7.9
24:00 1011 29.85 840 24.81 -5.5 22.1 54 -13.4 7.8